Weather History for Charlotte, NC

Change the Weather History Date:

Thursday, September 12, 2013

  Actual Average Record
Temperature  
Mean Temperature 80 °F 72 °F  
Max Temperature 90 °F 83 °F 95 °F (1925)
Min Temperature 69 °F 62 °F 45 °F (1917)
Degree Days  
Heating Degree Days 0 0  
Month to date heating degree days 0 0  
Since 1 July heating degree days 1 0  
Cooling Degree Days 15 8  
Month to date cooling degree days 150 108  
Year to date cooling degree days 1438 1385  
Growing Degree Days 30 (Base 50)    
Moisture  
Dew Point 67 °F    
Average Humidity 70    
Maximum Humidity 90    
Minimum Humidity 50    
Precipitation  
Precipitation 0.00 in 0.09 in 1.76 in (1884)
Month to date precipitation 0.15 1.29  
Year to date precipitation 35.47 29.89  
Snow  
Snow 0.00 in 0.00 in 0.00 in ()
Month to date snowfall 0.0 0.0  
Since 1 July snowfall 0.0 0.0  
Since 1 September snowfall 0.0 0.0  
Snow Depth 0.00 in    
Sea Level Pressure  
Sea Level Pressure 29.97 in    
Wind  
Wind Speed 3 mph (WSW)    
Max Wind Speed 14 mph    
Max Gust Speed 18 mph    
Visibility 10 miles    
Events      
T = Trace of Precipitation, MM = Missing Value Source: NWS Daily Summary

Daily Weather History Graph

Daily Weather History Graph

Search for Another Location

Airport:

Trip Planner

Search our weather history database for the weather conditions in past years. The results will help you decide how hot, cold, wet, or windy it might be!

Date:

Astronomy

Sep. 12, 2013 Rise Set
Actual Time 7:04 AM EDT 7:34 PM EDT
Civil Twilight 6:39 AM EDT 8:00 PM EDT
Nautical Twilight 6:09 AM EDT 8:30 PM EDT
Astronomical Twilight 5:38 AM EDT 9:00 PM EDT
Moon 2:16 PM EDT (9/12) No Moon Set
Length of Visible Light 13h 21m
Length of Day
12h 30m
Waxing Crescent, 50% of the Moon is Illuminated
Sep 12
Waxing Crescent
Sep 12
First Quarter
Sep 19
Full
Sep 26
Last Quarter
Oct 4
New

Hourly Weather History & Observations

Time (EDT) Temp. Heat Index Dew Point Humidity Pressure Visibility Wind Dir Wind Speed Gust Speed Precip Events Conditions
12:52 AM 71.1 °F - 64.9 °F 81% 30.07 in 10.0 mi Calm Calm - N/A   Mostly Cloudy
1:52 AM 70.0 °F - 66.0 °F 87% 30.06 in 9.0 mi South 5.8 mph - N/A   Mostly Cloudy
2:52 AM 70.0 °F - 64.0 °F 81% 30.05 in 7.0 mi Calm Calm - N/A   Mostly Cloudy
3:52 AM 71.1 °F - 64.0 °F 78% 30.04 in 10.0 mi Calm Calm - N/A   Mostly Cloudy
4:52 AM 72.0 °F - 64.0 °F 76% 30.04 in 10.0 mi SSW 3.5 mph - N/A   Overcast
5:52 AM 72.0 °F - 64.0 °F 76% 30.04 in 10.0 mi SSW 4.6 mph - N/A   Overcast
6:52 AM 71.1 °F - 64.0 °F 78% 30.04 in 10.0 mi Calm Calm - N/A   Scattered Clouds
7:52 AM 71.1 °F - 64.0 °F 78% 30.04 in 10.0 mi Calm Calm - N/A   Scattered Clouds
8:52 AM 75.0 °F - 66.0 °F 73% 30.04 in 10.0 mi Calm Calm - N/A   Scattered Clouds
9:52 AM 79.0 °F - 68.0 °F 69% 30.03 in 10.0 mi Variable 3.5 mph - N/A   Scattered Clouds
10:52 AM 82.9 °F 86.5 °F 69.1 °F 63% 30.02 in 10.0 mi Variable 3.5 mph - N/A   Scattered Clouds
11:52 AM 86.0 °F 90.1 °F 69.1 °F 57% 30.00 in 10.0 mi Variable 3.5 mph - N/A   Scattered Clouds
12:52 PM 88.0 °F 91.4 °F 68.0 °F 51% 29.98 in 10.0 mi West 5.8 mph - N/A   Scattered Clouds
1:52 PM 89.1 °F 92.9 °F 68.0 °F 50% 29.96 in 10.0 mi WSW 5.8 mph - N/A   Scattered Clouds
2:52 PM 88.0 °F 91.4 °F 68.0 °F 51% 29.92 in 10.0 mi Variable 3.5 mph - N/A   Mostly Cloudy
3:52 PM 87.1 °F 90.6 °F 68.0 °F 53% 29.89 in 10.0 mi SW 5.8 mph - N/A   Mostly Cloudy
4:52 PM 89.1 °F 93.7 °F 69.1 °F 52% 29.87 in 10.0 mi West 8.1 mph 16.1 mph N/A   Scattered Clouds
5:52 PM 84.0 °F 87.8 °F 69.1 °F 61% 29.86 in 10.0 mi West 4.6 mph - N/A   Mostly Cloudy
6:52 PM 82.9 °F 86.5 °F 69.1 °F 63% 29.87 in 10.0 mi WNW 4.6 mph - N/A   Overcast
7:52 PM 78.1 °F - 66.9 °F 68% 29.86 in 10.0 mi WNW 3.5 mph - N/A   Overcast
8:52 PM 75.9 °F - 68.0 °F 76% 29.88 in 10.0 mi WSW 3.5 mph - N/A   Overcast
9:52 PM 75.0 °F - 68.0 °F 79% 29.88 in 10.0 mi Calm Calm - N/A   Overcast
10:52 PM 73.0 °F - 69.1 °F 87% 29.87 in 10.0 mi WSW 3.5 mph - N/A   Overcast
11:52 PM 73.0 °F - 69.1 °F 87% 29.85 in 10.0 mi WSW 4.6 mph - N/A   Overcast